{"data":{"norad_id":66425,"epoch":"2026-05-25T05:03:39.314016Z","epoch_age_seconds":50826,"freshness":"FRESH","line1":"1 66425U 25259D   26145.21087169  .00021466  00000+0  78695-3 0  9994","line2":"2 66425  43.0004 202.2477 0001391 258.9007 101.1688 15.27594246 31199","mean_motion":15.27594246,"eccentricity":0.0001391,"inclination_deg":43.0004,"raan_deg":202.2477,"arg_perigee_deg":258.9007,"mean_anomaly_deg":101.1688,"bstar":0.00078695,"rev_number":3119,"period_min":94.265869603177,"perigee_km":482.05205366987,"apogee_km":483.96082377452,"semimajor_km":6861.1434387222,"source":"CELESTRAK","updated_at":"2026-05-25T13:38:21.207188Z"}}